Location: Wyalusing
(42.9440°N, 91.1410°W)
Time: 02:23:30
(UTC-06:00)

ISS - Visible Passes

Search period start: 22 January 2018 00:00
Search period end: 01 February 2018 00:00
Orbit: 402 x 407 km, 51.6° (Epoch: 22 January)

Date Brightness Start Highest point End Pass type
(mag) Time Alt. Az. Time Alt. Az. Time Alt. Az.
23 Jan -1.3 19:03:07 10° S 19:03:51 14° S 19:03:51 14° S visible
24 Jan -1.6 18:12:09 10° SSE 18:13:40 13° SE 18:14:08 12° ESE visible
24 Jan -0.6 19:46:27 10° WSW 19:46:49 13° WSW 19:46:49 13° WSW visible
25 Jan -3.4 18:54:13 10° SW 18:56:59 49° S 18:56:59 49° S visible
26 Jan -2.6 18:02:19 10° SSW 18:05:10 28° SE 18:07:05 16° E visible
26 Jan -1.2 19:38:27 10° W 19:39:45 21° W 19:39:45 21° W visible
27 Jan -3.7 18:45:53 10° WSW 18:49:07 67° NNW 18:49:45 51° NNE visible
28 Jan -3.8 17:53:31 10° SW 17:56:45 68° SE 17:59:40 12° ENE visible
28 Jan -1.4 19:30:40 10° WNW 19:32:20 21° NW 19:32:20 21° NW visible
29 Jan -2.6 18:37:53 10° W 18:40:55 35° NNW 18:42:11 25° NNE visible
30 Jan -3.3 17:45:13 10° WSW 17:48:26 55° NNW 17:51:40 10° NE visible
30 Jan -1.4 19:22:57 10° WNW 19:24:38 18° NNW 19:24:38 18° NNW visible
31 Jan -2.0 18:30:04 10° WNW 18:32:47 23° NNW 18:34:23 17° NNE visible
